EN

Hourly Weather Allada

Today, 20 January, Wednesday

Time Temperature Precipitation Wind Pressure Humidity
00:00 +27°C° 0 mm 1 mps 751 mmHg 85%
01:00 +27°C° 0 mm 1 mps 750 mmHg 87%
02:00 +26°C° 0 mm 1 mps 750 mmHg 88%
03:00 +26°C° 0 mm 2 mps 750 mmHg 89%
04:00 +26°C° 0 mm 1 mps 750 mmHg 91%
05:00 +26°C° 0 mm 1 mps 751 mmHg 92%
06:00 +25°C° 0 mm 1 mps 751 mmHg 93%
07:00 +28°C° 0 mm 1 mps 751 mmHg 82%
08:00 +30°C° 0 mm 1 mps 752 mmHg 70%
09:00 +32°C° 0 mm 1 mps 752 mmHg 59%
10:00 +34°C° 0 mm 1 mps 752 mmHg 50%
11:00 +36°C° 0 mm 1 mps 751 mmHg 40%
12:00 +39°C° 0 mm 1 mps 751 mmHg 31%
13:00 +38°C° 0 mm 2 mps 750 mmHg 33%
14:00 +38°C° 0 mm 3 mps 749 mmHg 34%
15:00 +38°C° 0 mm 3 mps 748 mmHg 36%
16:00 +35°C° 0 mm 3 mps 749 mmHg 47%
17:00 +33°C° 0 mm 4 mps 749 mmHg 58%
18:00 +29°C° 0 mm 4 mps 749 mmHg 69%
19:00 +29°C° 0 mm 3 mps 750 mmHg 73%
20:00 +28°C° 0 mm 3 mps 750 mmHg 77%
21:00 +28°C° 0 mm 2 mps 750 mmHg 81%
22:00 +27°C° 0 mm 2 mps 750 mmHg 83%
23:00 +27°C° 0 mm 2 mps 750 mmHg 86%

Tomorrow, 21 January, Thursday

Time Temperature Precipitation Wind Pressure Humidity
00:00 +26°C° 0 mm 2 mps 750 mmHg 88%
01:00 +26°C° 0 mm 1 mps 750 mmHg 90%
02:00 +26°C° 0 mm 1 mps 750 mmHg 92%
03:00 +25°C° 0 mm 1 mps 750 mmHg 95%
04:00 +25°C° 0 mm 1 mps 750 mmHg 95%
05:00 +25°C° 0 mm 1 mps 750 mmHg 95%
06:00 +25°C° 0 mm 1 mps 751 mmHg 96%
07:00 +27°C° 0 mm 1 mps 751 mmHg 83%
08:00 +28°C° 0 mm 0 mps 752 mmHg 71%
09:00 +30°C° 0 mm 0 mps 752 mmHg 59%
10:00 +32°C° 0 mm 0 mps 752 mmHg 50%
11:00 +34°C° 0 mm 0 mps 751 mmHg 40%
12:00 +40°C° 0 mm 1 mps 751 mmHg 31%
13:00 +39°C° 0 mm 1 mps 750 mmHg 32%
14:00 +38°C° 0 mm 2 mps 750 mmHg 33%
15:00 +38°C° 0 mm 3 mps 749 mmHg 34%
16:00 +35°C° 0 mm 3 mps 749 mmHg 44%
17:00 +33°C° 0 mm 4 mps 749 mmHg 55%
18:00 +29°C° 0 mm 4 mps 749 mmHg 66%
19:00 +29°C° 0 mm 3 mps 750 mmHg 70%
20:00 +28°C° 0 mm 3 mps 750 mmHg 74%
21:00 +28°C° 0 mm 2 mps 751 mmHg 78%
22:00 +27°C° 0 mm 2 mps 751 mmHg 81%
23:00 +27°C° 0 mm 2 mps 751 mmHg 83%

Day after tomorrow, 22 January, Friday

Time Temperature Precipitation Wind Pressure Humidity
00:00 +27°C° 0 mm 2 mps 750 mmHg 86%
01:00 +26°C° 0 mm 2 mps 750 mmHg 88%
02:00 +26°C° 0 mm 1 mps 750 mmHg 90%
03:00 +25°C° 0 mm 1 mps 750 mmHg 92%
04:00 +25°C° 0 mm 1 mps 750 mmHg 93%
05:00 +25°C° 0 mm 1 mps 750 mmHg 93%
06:00 +25°C° 0 mm 1 mps 751 mmHg 94%
07:00 +27°C° 0 mm 1 mps 751 mmHg 84%
08:00 +29°C° 0 mm 1 mps 752 mmHg 73%
09:00 +31°C° 0 mm 1 mps 752 mmHg 63%
10:00 +33°C° 0 mm 1 mps 752 mmHg 55%
11:00 +35°C° 0 mm 2 mps 752 mmHg 47%
12:00 +37°C° 0 mm 2 mps 751 mmHg 40%
13:00 +37°C° 0 mm 3 mps 751 mmHg 42%
14:00 +36°C° 0 mm 4 mps 750 mmHg 44%
15:00 +35°C° 0 mm 5 mps 749 mmHg 47%
16:00 +34°C° 0 mm 4 mps 749 mmHg 54%
17:00 +32°C° 0 mm 4 mps 749 mmHg 61%
18:00 +29°C° 0 mm 4 mps 749 mmHg 67%
19:00 +29°C° 0 mm 3 mps 750 mmHg 71%
20:00 +28°C° 0 mm 3 mps 750 mmHg 74%
21:00 +28°C° 0 mm 3 mps 751 mmHg 78%
22:00 +27°C° 0 mm 3 mps 751 mmHg 80%
23:00 +27°C° 0 mm 2 mps 751 mmHg 81%

23 January, Saturday

Time Temperature Precipitation Wind Pressure Humidity
00:00 +27°C° 0 mm 2 mps 751 mmHg 83%
01:00 +26°C° 0 mm 2 mps 751 mmHg 85%
02:00 +26°C° 0 mm 2 mps 750 mmHg 87%
03:00 +26°C° 0 mm 2 mps 750 mmHg 89%
04:00 +26°C° 0 mm 1 mps 750 mmHg 90%
05:00 +25°C° 0 mm 1 mps 750 mmHg 92%
06:00 +25°C° 0 mm 1 mps 750 mmHg 93%
07:00 +27°C° 0 mm 1 mps 751 mmHg 83%
08:00 +29°C° 0 mm 2 mps 751 mmHg 72%
09:00 +31°C° 0 mm 2 mps 752 mmHg 62%
10:00 +34°C° 0 mm 2 mps 751 mmHg 54%
11:00 +36°C° 0 mm 2 mps 751 mmHg 46%
12:00 +38°C° 0 mm 2 mps 751 mmHg 38%
13:00 +37°C° 0 mm 3 mps 750 mmHg 40%
14:00 +37°C° 0 mm 4 mps 749 mmHg 42%
15:00 +36°C° 0 mm 5 mps 748 mmHg 44%
16:00 +34°C° 0 mm 4 mps 748 mmHg 52%
17:00 +32°C° 0 mm 4 mps 748 mmHg 60%
18:00 +29°C° 0 mm 4 mps 748 mmHg 69%
19:00 +29°C° 0 mm 4 mps 749 mmHg 72%
20:00 +28°C° 0 mm 3 mps 750 mmHg 76%
21:00 +28°C° 0 mm 3 mps 750 mmHg 79%
22:00 +27°C° 0 mm 3 mps 750 mmHg 80%
23:00 +27°C° 0 mm 3 mps 750 mmHg 82%

24 January, Sunday

Time Temperature Precipitation Wind Pressure Humidity
00:00 +27°C° 0 mm 3 mps 750 mmHg 83%
01:00 +27°C° 0 mm 2 mps 750 mmHg 85%
02:00 +26°C° 0 mm 1 mps 750 mmHg 88%
03:00 +24°C° 0 mm 0 mps 749 mmHg 90%
04:00 +26°C° 0 mm 1 mps 750 mmHg 90%
05:00 +26°C° 0 mm 1 mps 750 mmHg 91%
06:00 +26°C° 0 mm 1 mps 750 mmHg 91%
07:00 +27°C° 0 mm 1 mps 751 mmHg 82%
08:00 +29°C° 0 mm 2 mps 751 mmHg 72%
09:00 +31°C° 0 mm 2 mps 752 mmHg 63%
10:00 +34°C° 0 mm 2 mps 751 mmHg 58%
11:00 +35°C° 0 mm 2 mps 751 mmHg 52%
12:00 +36°C° 0 mm 2 mps 751 mmHg 47%
13:00 +36°C° 0 mm 3 mps 750 mmHg 47%
14:00 +36°C° 0 mm 4 mps 749 mmHg 47%
15:00 +36°C° 0 mm 4 mps 748 mmHg 48%
16:00 +34°C° 0 mm 4 mps 748 mmHg 56%
17:00 +32°C° 0 mm 4 mps 748 mmHg 65%
18:00 +29°C° 0 mm 4 mps 748 mmHg 73%
19:00 +29°C° 0 mm 4 mps 749 mmHg 76%
20:00 +28°C° 0 mm 3 mps 749 mmHg 79%
21:00 +28°C° 0 mm 3 mps 750 mmHg 82%
22:00 +27°C° 0 mm 3 mps 750 mmHg 84%
23:00 +27°C° 0 mm 3 mps 750 mmHg 85%

25 January, Monday

Time Temperature Precipitation Wind Pressure Humidity
00:00 +27°C° 0 mm 2 mps 750 mmHg 87%
01:00 +27°C° 0 mm 2 mps 750 mmHg 88%
02:00 +26°C° 0 mm 1 mps 749 mmHg 89%
03:00 +26°C° 0 mm 1 mps 749 mmHg 90%
04:00 +26°C° 0 mm 1 mps 750 mmHg 91%
05:00 +26°C° 0 mm 1 mps 750 mmHg 92%
06:00 +25°C° 0 mm 1 mps 750 mmHg 93%
07:00 +27°C° 0 mm 1 mps 751 mmHg 82%
08:00 +29°C° 0 mm 2 mps 751 mmHg 72%
09:00 +31°C° 0 mm 2 mps 752 mmHg 61%
10:00 +34°C° 0 mm 2 mps 751 mmHg 55%
11:00 +35°C° 0 mm 3 mps 751 mmHg 49%
12:00 +37°C° 0 mm 3 mps 750 mmHg 43%
13:00 +36°C° 0 mm 3 mps 750 mmHg 45%
14:00 +36°C° 0 mm 4 mps 749 mmHg 46%
15:00 +35°C° 0 mm 4 mps 748 mmHg 48%
16:00 +34°C° 0 mm 4 mps 749 mmHg 54%
17:00 +31°C° 0 mm 3 mps 749 mmHg 59%
18:00 +30°C° 0 mm 3 mps 749 mmHg 64%
19:00 +29°C° 0 mm 3 mps 750 mmHg 69%
20:00 +28°C° 0 mm 3 mps 750 mmHg 73%
21:00 +28°C° 0 mm 3 mps 751 mmHg 78%
22:00 +27°C° 0 mm 2 mps 751 mmHg 80%
23:00 +27°C° 0 mm 2 mps 751 mmHg 82%
Show more